Overview Statistics Trail Chart Weather Telemetry Raw packets
 

This is the latest recevied weather packets stored in our database for station/object DB0OHL. If no packets are shown the sender has not sent any weather packets the latest 10 day(s).

<< 21 22 23 24 25 26 27 >>
Time Temp. Humidity Pressure Rain* Wind** Luminosity Snow
1777490145 12.78° C 52% 1025.4 hPa 0 mm - - -
1777489542 13.33° C 52% 1025.3 hPa 0 mm - - -
1777488940 13.33° C 51% 1025.2 hPa 0 mm - - -
1777488337 13.89° C 51% 1025 hPa 0 mm - - -
1777487734 13.89° C 50% 1024.9 hPa 0 mm - - -
1777487132 14.44° C 51% 1024.6 hPa 0 mm - - -
1777486529 15° C 51% 1024.6 hPa 0 mm - - -
1777485932 15° C 50% 1024.4 hPa 0 mm - - -
1777485324 15.56° C 51% 1024.3 hPa 0 mm - - -
1777484722 15.56° C 50% 1024.4 hPa 0 mm - - -
1777484119 16.11° C 47% 1024.4 hPa 0 mm - - -
1777483517 16.67° C 47% 1024.3 hPa 0 mm - - -
1777482974 16.67° C 46% 1024.3 hPa 0 mm - - -
1777482372 16.67° C 46% 1024.1 hPa 0 mm - - -
1777481772 16.67° C 46% 1024.1 hPa 0 mm - - -
1777481167 16.67° C 47% 1024.2 hPa 0 mm - - -
1777480564 17.22° C 46% 1024.2 hPa 0 mm - - -
1777479962 16.67° C 46% 1024.3 hPa 0 mm - - -
1777479359 16.67° C 45% 1024.4 hPa 0 mm - - -
1777478757 17.22° C 44% 1024.1 hPa 0 mm - - -
1777478154 17.22° C 46% 1024.2 hPa 0 mm - - -
1777477551 16.67° C 46% 1024.1 hPa 0 mm - - -
1777476346 17.22° C 46% 1024.4 hPa 0 mm - - -
1777475744 17.78° C 45% 1024.4 hPa 0 mm - - -
1777475141 17.78° C 46% 1024.4 hPa 0 mm - - -

* Rain latest hour (hover to see other rain measurements)
** Current wind speed in m/s (hover to see current wind gust speed)